Syracuse 4B

operational
NORAD ID: 57214 Int'l Des: 2023-093 Owner: DGA Country: F
HEOCIRCULARGSOGEO

Syracuse 4Bについて

説明を読み込み中...

リアルタイム位置

3D地球を読み込み中...

次回通過

高度履歴

Altitude vs Time

uPlot chart will show altitude changes over time

軌道要素

1 57214U 23093B 26062.08601324 -.00000069 00000-0 00000+0 0 9991
2 57214 0.0183 135.8794 0000312 200.6050 208.8481 1.00273729 5905
Epoch: Mar 3, 2026 • Age: 17 hours

現在のステータス

高度 35785.2 km
速度 3.07 km/s
衛星直下点 -0.05°S, 6.46°W
打ち上げ日 Jul 5, 2023
運用期間 2.6 years
タイプ other

技術仕様

分類 Payload
質量 3572.00 kg
乾燥質量 3200.00 kg
総質量 3572.00 kg
長さ 5.00 m
直径 2.50 m
スパン 30.00 m
形状 Box + 2 Pan
製造者 ADST
バスタイプ Eurostar 3000EOR
フェーズステータス In Orbit
所有者/国 DGA/F

大規模コンステレーション

Loading constellations...